Regional Weather Roundup
Issued by NWS

Home | Current Version | Previous Version | Text Only | Print | Product List | Glossary Off
Versions: 1 2 3 4 5 6 7 8 9 10 11 12 13 14 15 16 17 18 19 20 21 22 23 24 25 26 27 28 29 30 31 32 33 34 35 36 37 38 39 40 41 42 43 44 45 46 47 48 49 50

000
ASUS45 KTFX 242210
RWRMT
MONTANA REGIONAL WEATHER ROUNDUP
NATIONAL WEATHER SERVICE GREAT FALLS MT
300 PM MST TUE JAN 24 2017

NOTE: "FAIR" INDICATES FEW OR NO CLOUDS BELOW 12000 FEET WITH NO
SIGNIFICANT WEATHER AND/OR OBSTRUCTIONS TO VISIBILITY.

MTZ001>007-043-242300-
WEST OF THE DIVIDE

CITY           SKY/WX    TMP DP  RH WIND       PRES   REMARKS
KALISPELL      CLOUDY    23  14  68 CALM      29.98R
MISSOULA       CLOUDY    25  15  66 CALM      29.97S
BUTTE          SUNNY     20   9  62 CALM      29.83S
MULLAN PASS    FOG       20  18  92 CALM      29.85R VSB 1/2
ANACONDA         N/A     25  10  54 CALM      29.87R
DEER LODGE       N/A     19  10  68 N3        29.92R
EUREKA           N/A     25  18  74 CALM      30.01R
HAMILTON         N/A     30  14  51 CALM      29.94S
PLAINS           N/A     32  23  69 CALM      30.00R
RONAN            N/A     26  24  92 CALM      30.02R
$$

MTZ008-052>055-242300-
SOUTHWEST MONTANA

CITY           SKY/WX    TMP DP  RH WIND       PRES   REMARKS
BOZEMAN        SUNNY     16  10  77 E5        29.89R
DILLON         CLOUDY    18   8  65 S7        29.83R WCI   9
W YELLOWSTONE  CLOUDY    19   7  58 NE14      29.72R WCI   6
ENNIS          SUNNY     23   9  54 N16       29.86R WCI  10
TWIN BRIDGES     N/A     22   6  50 N3        29.85S
$$

MTZ009-010-012-014-046-048-049-054-242300-
EAST SLOPES AND CENTRAL MONTANA

CITY           SKY/WX    TMP DP  RH WIND       PRES   REMARKS
CUT BANK       CLOUDY    27  19  72 N5        29.87S
GREAT FALLS    CLOUDY    28  16  60 W5        29.88R
MALMSTROM AFB  CLOUDY    27  17  66 W3        29.90R
HELENA         PTSUNNY   16   7  67 NE3       29.90S
BOWMANS CRNR   PTSUNNY   20  15  84 SW7       29.85R WCI  11
CHOTEAU          N/A     28  21  74 CALM      29.89R
CONRAD           N/A     26  18  72 N2        29.92R
POWER          PTSUNNY   24  18  79 W6        29.87S WCI  17
RAYNESFORD     PTSUNNY   27  13  55 NW7       29.87R WCI  20
ULM              N/A     28  17  62 MISG      29.89R
$$

MTZ011-013-016-021-045-047-050-051-242300-
NORTH CENTRAL MONTANA

CITY           SKY/WX    TMP DP  RH WIND       PRES   REMARKS
HAVRE          CLOUDY    22  17  81 NW6       29.94R WCI  14
LEWISTOWN      CLOUDY    23  15  71 NW8       29.85R WCI  14
N BAR RANCH      N/A     27  16  63 NW13      29.83R WCI  16
CHINOOK          N/A     18  14  86 NW9       29.95R WCI   6
DENTON           N/A     26  18  72 NW10      29.84R WCI  16
FORT BENTON      N/A     28  16  59 MISG      29.94R
GEYSER         PTSUNNY   27  16  63 W21       29.84S WCI  13
GRASS RANGE    PTSUNNY   26  16  65 W15       29.81R WCI  14
JUDITH GAP       N/A     24  16  69 N20G26    29.80R WCI  10
ROY            PTSUNNY   25  18  76 MISG      29.84R
STANFORD         N/A     28  16  60 NW20      29.83R WCI  14
WINIFRED         N/A     24  19  80 W10       29.85R WCI  14
$$

MTZ017>020-022>027-061-062-242300-
NORTHEAST MONTANA

CITY           SKY/WX    TMP DP  RH WIND       PRES   REMARKS
GLASGOW        CLOUDY    19  12  74 NW14      29.93R WCI   6
JORDAN           N/A     22  17  81 N9        29.90R WCI  12
SIDNEY         FLURRIES  22  16  78 NW12      29.93R WCI  10
WOLF POINT     CLOUDY    23  14  68 NW8       29.95R WCI  14
PLENTYWOOD       N/A     16  12  86 NW9       29.91R WCI   4
POPLAR           N/A     21  16  79 W7        29.94S WCI  13
SCOBEY           N/A     16   7  67 W6        29.89R WCI   8
$$

MTZ028>42-056>058-242300-
SOUTHCENTRAL AND SOUTHEAST MONTANA

CITY           SKY/WX    TMP DP  RH WIND       PRES   REMARKS
BAKER          CLOUDY    19  13  77 NW10      29.87R WCI   7
BILLINGS       MOSUNNY   24  16  71 W7        29.87R WCI  16
LIVINGSTON     MOSUNNY   24  12  60 NW5       29.84R
MILES CITY     CLOUDY    22  16  78 W8        29.90R WCI  12
BIG TIMBER     PTSUNNY   23  12  63 W16       29.86R WCI  10
EKALAKA          N/A     17  12  80 NW7       29.82R WCI   8
FORSYTH          N/A    N/A N/A N/A W5        29.90R
HARLOWTON        N/A     28  16  62 N15       29.82R WCI  16
LAUREL           N/A     24  15  68 SW2       29.87S
$$

REGIONAL REPORTS...DAKOTAS

CITY           SKY/WX    TMP DP  RH WIND       PRES   REMARKS
WILLISTON      FLURRIES  19  14  81 NW10      29.93R WCI   7
MINOT          CLOUDY    22  17  81 NW18      29.88R WCI   7
DICKINSON      CLOUDY    20  13  74 NW15      29.83R WCI   6
BEACH          CLOUDY    19  18  93 NW12      29.90R WCI   7
CROSBY         FLURRIES  18  16  93 NW10      29.94R WCI   6
TIOGA          CLOUDY    18  18 100 NW13      29.90R WCI   4
WATFORD CITY   MIX PCPN  19  14  79 NW9       29.90R WCI   9
BISMARCK       CLOUDY    27  19  72 N8        29.88R WCI  19
GRAND FORKS    CLOUDY    28  21  75 N3        29.87R
FARGO          CLOUDY    30  22  72 NW8       29.87R WCI  22
BUFFALO SD       N/A     20  14  77 NW20      29.77R WCI   4
RAPID CITY     LGT SNOW  20  17  88 N17       29.79R FOG     WCI   5
$$

REGIONAL REPORTS...WYOMING/IDAHO/WASHINGTON

CITY           SKY/WX    TMP DP  RH WIND       PRES   REMARKS
GILLETTE       LGT SNOW  19  16  88 N8        29.79R FOG     WCI   9
SHERIDAN       LGT SNOW  20  15  81 W6        29.84R WCI  12
BUFFALO WY     LGT SNOW  18  13  80 N15G23    29.78R WCI   4
CODY           LGT SNOW  18  15  88 N12       29.81R FOG     WCI   5
YELLOWSTONE LA   N/A     18   7  62 MISG      29.68R
IDAHO FALLS    LGT SNOW  24  21  88 NW5       29.81R FOG
SALMON         SUNNY     25  14  63 CALM      29.88R
BOISE          SUNNY     33  23  66 NW14      29.89R WCI  23
SPOKANE        FLURRIES  30  27  88 W7        30.02R WCI  23
$$

REGIONAL REPORTS...ALBERTA

CITY           SKY/WX    TMP DP  RH WIND       PRES   REMARKS
EDMONTON       MOSUNNY   23  16  74 CALM      29.90R
CALGARY        PTSUNNY   32  19  59 N8        29.86R WCI  25
LETHBRIDGE     MOSUNNY   30  23  74 S3        29.90R
MEDICINE HAT   CLOUDY    21  19  93 W6        29.95R FOG     WCI  14
WATERTON GATE    N/A     28  18  64 SW9         N/A  WCI  20
CARDSTON         N/A     36  14  41 SE3         N/A
MILK RIVER       N/A     27  23  86 CALM        N/A
ONEFOUR          N/A     19  18  93 NW7         N/A  WCI  10
$$

REGIONAL REPORTS...SASKATCHEWAN

CITY           SKY/WX    TMP DP  RH WIND       PRES   REMARKS
SWIFT CURRENT  LGT SNOW  10   9  92 NW10      29.90R WCI  -3
REGINA         FLURRIES  18  12  79 N10       29.92R WCI   6
SASKATOON      CRYSTALS   9   3  78 NW8       29.99R WCI  -4
CYPRESS HILLS    N/A     14  10  85 CALM        N/A
VAL MARIE        N/A     19  14  79 NW8         N/A  WCI   9
ROCKGLEN         N/A     14  10  85 NW12        N/A  WCI   0
ASSINIBOIA       N/A     18  18 100 CALM        N/A
$$



USA.gov is the U.S. government's official web portal to all federal, state and local government web resources and services.